Regional Weather Roundup
Issued by NWS

Home | Current Version | Previous Version | Graphics & Text | Print | Product List | Glossary Off
Versions: 1 2 3 4 5 6 7 8 9 10 11 12 13 14 15 16 17 18 19 20 21 22 23 24 25 26 27 28 29 30 31 32 33 34 35 36 37 38 39 40 41 42 43 44 45 46 47 48 49 50

000
ASUS43 KTOP 272359
RWRKS

WEATHER ROUNDUP FOR KANSAS
NATIONAL WEATHER SERVICE GOODLAND KS
700 PM CDT FRI MAR 27 2015

NOTE:  "FAIR" INDICATES FEW OR NO CLOUDS BELOW 12,000 FEET WITH NO
SIGNIFICANT WEATHER AND/OR OBSTRUCTIONS TO VISIBILITY.

KSZ001>006-013>018-027>032-041>047-280100-
NORTHWEST KANSAS

CITY           SKY/WX    TMP DP  RH WIND       PRES   REMARKS
GOODLAND       MOSUNNY   64  35  34 N6        30.00S
6HR MIN TEMP:  56; 6HR MAX TEMP:  70;

HAYS           CLEAR     55  34  44 S13       30.03F
HILL CITY      MOSUNNY   62  36  37 S13       29.98F
6HR MIN TEMP:  44; 6HR MAX TEMP:  62;

RUSSELL        PTCLDY    55  33  43 S10       30.02F
6HR MIN TEMP:  42; 6HR MAX TEMP:  56;

$$

KSZ061>065-074>080-084>089-280100-
SOUTHWEST KANSAS

CITY           SKY/WX    TMP DP  RH WIND       PRES   REMARKS
DODGE CITY     SUNNY     62  32  32 SW14      30.04F
6HR MIN TEMP:  42; 6HR MAX TEMP:  62;

ELKHART          N/A     68  36  30 S2          N/A
GARDEN CITY    SUNNY     64  35  34 SW10      30.01F
6HR MIN TEMP:  46; 6HR MAX TEMP:  65;

GREAT BEND     CLEAR     55  34  44 S12       30.06F
LIBERAL        SUNNY     66  36  32 SW5       30.07F
$$

KSZ066>073-081>083-090>101-280100-
SOUTHEAST KANSAS

CITY           SKY/WX    TMP DP  RH WIND       PRES   REMARKS
CHANUTE        CLOUDY    47  21  35 N6        30.16R
6HR MIN TEMP:  45; 6HR MAX TEMP:  51;

COFFEYVILLE    CLOUDY    50  23  34 NW3       30.15R
6HR MIN TEMP:  47; 6HR MAX TEMP:  52;

HUTCHINSON     CLOUDY    51  30  44 SW8       30.11F
6HR MIN TEMP:  45; 6HR MAX TEMP:  52;

MEDICINE LODGE   N/A     54  32  43 S10       30.10S
NEWTON         MOCLDY    48  27  43 W7        30.14F
PARSONS        CLOUDY    49  24  37 CALM      30.16R
6HR MIN TEMP:  47; 6HR MAX TEMP:  53;

WICHITA INTL   CLOUDY    50  29  44 W3        30.14R
6HR MIN TEMP:  45; 6HR MAX TEMP:  51;

WICHITA JABRA  CLOUDY    48  29  47 NW8       30.13S
6HR MIN TEMP:  46; 6HR MAX TEMP:  51;

WINFIELD       CLOUDY    51  28  41 W6        30.14S
6HR MIN TEMP:  48; 6HR MAX TEMP:  53;

$$

KSZ007>012-019>026-033>040-048>060-102>105-280100-
NORTHEAST KANSAS

CITY           SKY/WX    TMP DP  RH WIND       PRES   REMARKS
EMPORIA        CLOUDY    45  20  36 NE6       30.14S
6HR MIN TEMP:  44; 6HR MAX TEMP:  49;

LAWRENCE       CLOUDY    42  20  41 N6        30.17F
6HR MIN TEMP:  41; 6HR MAX TEMP:  46;

MANHATTAN      CLOUDY    45  17  32 CALM      30.14F
6HR MIN TEMP:  43; 6HR MAX TEMP:  48;

OLATHE IND     CLOUDY    41  18  39 W7        30.17R
6HR MIN TEMP:  39; 6HR MAX TEMP:  45;

OLATHE EXE     CLOUDY    42  18  37 NW8       30.15S
6HR MIN TEMP:  40; 6HR MAX TEMP:  45;

SALINA         MOCLDY    49  25  39 S6        30.11F
6HR MIN TEMP:  44; 6HR MAX TEMP:  50;

TOPEKA BILLARD CLOUDY    43  18  36 CALM      30.16F
6HR MIN TEMP:  41; 6HR MAX TEMP:  46;

TOPEKA FORBES  CLOUDY    44  19  36 N6        30.15F
6HR MIN TEMP:  41; 6HR MAX TEMP:  46;

$$



USA.gov is the U.S. government's official web portal to all federal, state and local government web resources and services.